Content
SEND FEEDBACK

Daily
Averages
Monthly
Summary
United States of America

SEDONA, ARIZONA


Home > North America > United States > Arizona
Elevation: 4827 feet     Latitude: 34 51N     Longitude: 111 47W

WEATHER
 
SELECT A DAY
Number of Records: 142,419;   Date Range: 1/4/95 - 12/27/14
 
SHARE

PRINT THIS DATA

[ ← Previous Day ]
WEATHER ALMANAC - FEBRUARY 13, 2013
[ Next Day → ]
[ °C ]   °F
Weather ElementAverageHighLow
Temperature43.6 °F57.2 °F (2:35 pm)32 °F (2:35 am)
Dewpoint19.1 °F24.8 °F (1:15 pm)12.2 °F (12:35 am)
Humidity38.5 %55 % (5:35 am)26 % (4:15 pm)
Barometer30.17 in30.21 in (8:35 am)30.12 in (4:35 pm)
Wind Speed7.8 mph15 mph (10:15 pm)
Wind Gust19.6 mph (10:15 pm)
Weather ElementAverage
Visibility10 mi
Wind DirectionENE (78.3 °)

Weather ElementTotal
Precipitation---
Heating Degree Days20.4 (Base 65)
Averaged from 70 records on February 13, 2013
WEATHER CONDITIONS BREAKOUT
WIND DIRECTION BREAKOUT
WEATHER BY HOUR - FEBRUARY 13, 2013
[ °C ]   °F
Local TimeTemperatureDewpointHumidityBarometerVisibilityWind DirectionWind SpeedGust SpeedPrecipitationEventsConditions
12:35 AM33.8 °F12.2 °F41 %30.19 in10.0 miENE (60°)12.7 mphClear
12:55 AM33.8 °F12.2 °F41 %30.19 in10.0 miENE (60°)12.7 mphClear
1:15 AM33.8 °F12.2 °F41 %30.19 in10.0 miNE (50°)10.4 mphClear
1:35 AM35.6 °F12.2 °F38 %30.19 in10.0 miNE (50°)9.2 mphClear
1:55 AM35.6 °F14.0 °F41 %30.18 in10.0 miENE (60°)8.1 mphClear
2:15 AM33.8 °F14.0 °F44 %30.19 in10.0 miNE (50°)9.2 mphClear
2:35 AM32.0 °F15.8 °F51 %30.18 in10.0 miNE (40°)11.5 mphClear
2:55 AM33.8 °F15.8 °F48 %30.17 in10.0 miNE (50°)9.2 mphClear
3:15 AM32.0 °F15.8 °F51 %30.17 in10.0 miNE (50°)11.5 mphClear
3:35 AM33.8 °F15.8 °F48 %30.17 in10.0 miNE (40°)10.4 mphClear
3:55 AM33.8 °F15.8 °F48 %30.17 in10.0 miNE (50°)11.5 mphClear
4:15 AM33.8 °F15.8 °F48 %30.17 in10.0 miENE (60°)10.4 mphClear
4:35 AM33.8 °F15.8 °F48 %30.17 in10.0 miENE (60°)10.4 mphClear
5:15 AM33.8 °F17.6 °F52 %30.17 in10.0 miEast (90°)8.1 mphClear
5:35 AM32.0 °F17.6 °F55 %30.17 in10.0 miENE (60°)4.6 mphClear
5:55 AM33.8 °F17.6 °F52 %30.17 in10.0 miENE (70°)8.1 mphClear
6:15 AM33.8 °F15.8 °F48 %30.18 in10.0 miNE (50°)9.2 mphClear
6:35 AM33.8 °F15.8 °F48 %30.19 in10.0 miNE (50°)12.7 mphClear
6:55 AM33.8 °F14.0 °F44 %30.18 in10.0 miENE (60°)11.5 mphClear
7:15 AM33.8 °F14.0 °F44 %30.19 in10.0 miNE (50°)9.2 mphClear
7:35 AM33.8 °F14.0 °F44 %30.19 in10.0 miNE (50°)9.2 mphClear
7:55 AM35.6 °F14.0 °F41 %30.19 in10.0 miENE (60°)10.4 mphClear
8:15 AM37.4 °F15.8 °F41 %30.20 in10.0 miNE (50°)9.2 mphClear
8:35 AM37.4 °F15.8 °F41 %30.21 in10.0 miENE (70°)5.8 mphClear
8:55 AM39.2 °F17.6 °F42 %30.21 in10.0 miEast (80°)8.1 mphClear
9:15 AM41.0 °F17.6 °F39 %30.20 in10.0 miEast (90°)9.2 mph18.4 mphClear
9:35 AM42.8 °F17.6 °F36 %30.20 in10.0 miEast (90°)8.1 mphClear
9:55 AM44.6 °F19.4 °F37 %30.20 in10.0 miCalmClear
10:15 AM44.6 °F17.6 °F34 %30.20 in10.0 miCalmClear
10:35 AM44.6 °F19.4 °F37 %30.20 in10.0 miCalmClear
10:55 AM44.6 °F19.4 °F37 %30.20 in10.0 miCalmClear
11:15 AM46.4 °F19.4 °F34 %30.20 in10.0 miSSW (200°)4.6 mphClear
11:35 AM50.0 °F23.0 °F35 %30.19 in10.0 miSouth (190°)8.1 mphClear
11:55 AM50.0 °F21.2 °F32 %30.19 in10.0 miSW (220°)3.5 mphClear
12:15 PM50.0 °F23.0 °F35 %30.19 in10.0 miCalmClear
12:35 PM50.0 °F23.0 °F35 %30.18 in10.0 miSW (230°)4.6 mphClear
12:55 PM51.8 °F23.0 °F33 %30.17 in10.0 miWSW (250°)3.5 mphClear
1:15 PM53.6 °F24.8 °F33 %30.16 in10.0 miSouth (170°)5.8 mphClear
1:35 PM51.8 °F23.0 °F33 %30.15 in10.0 miWSW (250°)5.8 mphClear
1:55 PM55.4 °F24.8 °F31 %30.14 in10.0 miSSE (160°)6.9 mphClear
2:15 PM55.4 °F23.0 °F29 %30.14 in10.0 miSouth (170°)3.5 mphClear
2:35 PM57.2 °F23.0 °F27 %30.14 in10.0 miWSW (240°)3.5 mphClear
2:55 PM55.4 °F23.0 °F29 %30.13 in10.0 miCalmClear
3:15 PM55.4 °F23.0 °F29 %30.13 in10.0 miWSW (240°)3.5 mphClear
3:35 PM55.4 °F23.0 °F29 %30.13 in10.0 miCalmClear
3:55 PM55.4 °F23.0 °F29 %30.13 in10.0 miWest (280°)4.6 mphClear
4:15 PM55.4 °F21.2 °F26 %30.13 in10.0 miCalmClear
4:35 PM55.4 °F23.0 °F29 %30.12 in10.0 miCalmClear
4:55 PM55.4 °F23.0 °F29 %30.12 in10.0 miCalmClear
5:15 PM53.6 °F23.0 °F30 %30.12 in10.0 miESE (110°)6.9 mphClear
5:35 PM53.6 °F23.0 °F30 %30.13 in10.0 miCalmClear
5:55 PM51.8 °F23.0 °F33 %30.13 in10.0 miEast (90°)6.9 mphClear
6:15 PM50.0 °F23.0 °F35 %30.13 in10.0 miEast (80°)8.1 mphClear
6:35 PM50.0 °F21.2 °F32 %30.14 in10.0 miEast (80°)11.5 mph16.1 mphClear
6:55 PM48.2 °F21.2 °F34 %30.14 in10.0 miEast (80°)10.4 mphClear
7:15 PM48.2 °F21.2 °F34 %30.14 in10.0 miEast (80°)11.5 mph18.4 mphClear
7:35 PM46.4 °F21.2 °F37 %30.15 in10.0 miENE (70°)9.2 mphClear
7:55 PM44.6 °F21.2 °F39 %30.15 in10.0 miENE (60°)11.5 mphClear
8:15 PM44.6 °F19.4 °F37 %30.15 in10.0 miENE (70°)10.4 mph16.1 mphClear
8:35 PM44.6 °F19.4 °F37 %30.15 in10.0 miENE (60°)12.7 mphClear
8:55 PM44.6 °F19.4 °F37 %30.15 in10.0 miENE (60°)12.7 mphClear
9:15 PM44.6 °F19.4 °F37 %30.15 in10.0 miENE (60°)12.7 mph18.4 mphClear
9:35 PM44.6 °F19.4 °F37 %30.15 in10.0 miENE (60°)12.7 mphClear
9:55 PM44.6 °F19.4 °F37 %30.15 in10.0 miENE (70°)13.8 mphClear
10:15 PM44.6 °F19.4 °F37 %30.15 in10.0 miNE (50°)15.0 mph19.6 mphClear
10:35 PM42.8 °F21.2 °F42 %30.15 in10.0 miNE (40°)12.7 mphClear
10:55 PM42.8 °F21.2 °F42 %30.15 in10.0 miNNE (30°)12.7 mphClear
11:15 PM42.8 °F21.2 °F42 %30.16 in10.0 miNE (40°)11.5 mphClear
11:35 PM42.8 °F21.2 °F42 %30.16 in10.0 miNE (40°)12.7 mphClear
11:55 PM41.0 °F21.2 °F45 %30.16 in10.0 miNE (50°)9.2 mphClear
Hourly data recorded from KSEZ, located miles away from Sedona, Arizona







STORIES FROM OUR PARTNERS